KM4BH Weather Reports


Display with metric or nautical units.
time (UTC)temp
F
wind
direction
speed
MPH
gust
MPH
rain 1hr
in
rain 24hr
in
rain mn
in
humidity
%
barometer
mb
20260504180051 75 150 1.0 4.0 0.00 0.00 0.00 44 1017.7
20260504175544 75 226 1.0 4.0 0.00 0.00 0.00 44 1017.8
20260504175043 75 56 1.0 6.0 0.00 0.00 0.00 39 1017.8
20260504174548 75 250 2.0 6.0 0.00 0.00 0.00 42 1017.9
20260504174043 75 269 3.0 6.0 0.00 0.00 0.00 42 1018.0
20260504173544 76 257 2.0 5.0 0.00 0.00 0.00 41 1018.0
20260504173052 75 154 0.0 6.0 0.00 0.00 0.00 43 1017.9
20260504172543 74 265 1.0 6.0 0.00 0.00 0.00 42 1018.0
20260504172044 74 263 2.0 6.0 0.00 0.00 0.00 43 1018.2
20260504171549 74 221 1.0 6.0 0.00 0.00 0.00 42 1018.2
20260504171044 73 261 3.0 6.0 0.00 0.00 0.00 44 1018.3
20260504170544 73 55 1.0 6.0 0.00 0.00 0.00 45 1018.3
20260504151048 65 229 1.0 7.0 0.00 0.00 0.00 57 1019.5
20260504150544 65 204 3.0 7.0 0.00 0.00 0.00 55 1019.6
20260504141043 61 146 1.0 4.0 0.00 0.00 0.00 63 1019.7
20260504140545 60 186 1.0 4.0 0.00 0.00 0.00 66 1019.7
20260504130544 51 0 0.0 1.0 0.00 0.00 0.00 92 1019.6
20260504110541 42 0 0.0 0.0 0.00 0.00 0.00 94 1018.9
20260504100544 43 0 0.0 0.0 0.00 0.00 0.00 94 1019.0
20260504081553 45 0 0.0 0.0 0.00 0.00 0.00 93 1018.7
20260504081047 44 0 0.0 0.0 0.00 0.00 0.00 92 1018.8
20260504080544 45 0 0.0 0.0 0.00 0.00 0.00 92 1018.8
20260504050541 48 0 0.0 0.0 0.00 0.00 0.00 85 1019.8
20260504050107 48 0 0.0 0.0 0.00 0.00 0.00 86 1019.8
20260504045542 48 0 0.0 0.0 0.00 0.00 0.00 85 1019.9
20260504045040 48 0 0.0 0.0 0.00 0.00 0.00 85 1019.9
20260504044553 48 0 0.0 0.0 0.00 0.00 0.00 85 1019.9
20260504044042 48 0 0.0 0.0 0.00 0.00 0.00 85 1019.9
20260504043542 48 0 0.0 0.0 0.00 0.00 0.00 84 1020.0
20260504043055 48 0 0.0 0.0 0.00 0.00 0.00 84 1020.0
20260504042541 49 0 0.0 0.0 0.00 0.00 0.00 83 1020.1
20260504042040 49 0 0.0 0.0 0.00 0.00 0.00 81 1020.0
20260504041551 49 0 0.0 0.0 0.00 0.00 0.00 80 1020.0
20260504041040 50 0 0.0 0.0 0.00 0.00 0.00 80 1020.0
20260504040540 50 0 0.0 0.0 0.00 0.00 0.00 80 1019.9
20260504040105 50 0 0.0 0.0 0.00 0.00 0.00 79 1020.0
20260504035546 50 0 0.0 0.0 0.00 0.00 0.00 79 1019.9
20260504035044 50 0 0.0 0.0 0.00 0.00 0.00 79 1019.9
20260504034600 50 0 0.0 0.0 0.00 0.00 0.00 77 1020.0
20260504034048 50 0 0.0 0.0 0.00 0.00 0.00 78 1020.0
20260504033545 50 0 0.0 0.0 0.00 0.00 0.00 78 1020.0
20260504033126 51 0 0.0 0.0 0.00 0.00 0.00 78 1020.1
20260504032544 51 0 0.0 0.0 0.00 0.00 0.00 78 1020.1
20260504032043 51 0 0.0 0.0 0.00 0.00 0.00 78 1020.0
20260504031558 51 0 0.0 0.0 0.00 0.00 0.00 78 1019.9
20260504031044 51 0 0.0 0.0 0.00 0.00 0.00 78 1020.0
20260504030544 51 0 0.0 0.0 0.00 0.00 0.00 77 1019.9
20260504030052 51 0 0.0 0.0 0.00 0.00 0.00 77 1019.8
20260504025544 52 0 0.0 0.0 0.00 0.00 0.00 75 1019.8
20260504025045 52 0 0.0 0.0 0.00 0.00 0.00 75 1019.8
20260504024553 52 0 0.0 0.0 0.00 0.00 0.00 75 1019.7
20260504024044 52 0 0.0 0.0 0.00 0.00 0.00 74 1019.7
20260504023544 52 0 0.0 0.0 0.00 0.00 0.00 73 1019.7
20260504023101 53 0 0.0 0.0 0.00 0.00 0.00 72 1019.7
20260504022544 53 0 0.0 0.0 0.00 0.00 0.00 70 1019.6
20260504022043 54 0 0.0 0.0 0.00 0.00 0.00 69 1019.6
20260504021552 54 0 0.0 0.0 0.00 0.00 0.00 69 1019.6
20260504021041 54 0 0.0 0.0 0.00 0.00 0.00 68 1019.5
20260504020545 54 0 0.0 0.0 0.00 0.00 0.00 67 1019.5
20260504020058 55 0 0.0 0.0 0.00 0.00 0.00 67 1019.4
20260504015545 55 0 0.0 0.0 0.00 0.00 0.00 67 1019.4
20260504015045 55 0 0.0 0.0 0.00 0.00 0.00 66 1019.3
20260504014558 55 0 0.0 0.0 0.00 0.00 0.00 64 1019.2
20260504014043 56 0 0.0 0.0 0.00 0.00 0.00 64 1019.1
20260504013544 56 0 0.0 0.0 0.00 0.00 0.00 64 1019.1
20260504013106 56 0 0.0 0.0 0.00 0.00 0.00 65 1019.0
20260504012544 57 0 0.0 0.0 0.00 0.00 0.00 64 1018.9
20260504012042 57 0 0.0 0.0 0.00 0.00 0.00 63 1018.9
20260504011551 57 0 0.0 0.0 0.00 0.00 0.00 63 1018.9
20260504011043 57 0 0.0 0.0 0.00 0.00 0.00 62 1018.8
20260504010545 58 0 0.0 0.0 0.00 0.00 0.00 61 1018.8
20260504010111 58 0 0.0 0.0 0.00 0.00 0.00 60 1018.7
20260504005545 59 0 0.0 0.0 0.00 0.00 0.00 59 1018.7
20260504005045 60 0 0.0 0.0 0.00 0.00 0.00 58 1018.6
20260504004621 60 0 0.0 0.0 0.00 0.00 0.00 58 1018.6
20260504004045 60 0 0.0 0.0 0.00 0.00 0.00 57 1018.5
20260504003544 61 0 0.0 0.0 0.00 0.00 0.00 57 1018.5
20260504003053 61 0 0.0 0.0 0.00 0.00 0.00 57 1018.3
20260504002542 62 0 0.0 0.0 0.00 0.00 0.00 55 1018.4
20260504002042 62 0 0.0 0.0 0.00 0.00 0.00 55 1018.2
20260504001549 63 0 0.0 0.0 0.00 0.00 0.00 53 1018.4
20260504001042 63 0 0.0 0.0 0.00 0.00 0.00 51 1018.2
20260504000542 64 0 0.0 0.0 0.00 0.00 0.00 51 1018.3
20260504000053 65 0 0.0 3.0 0.00 0.00 0.00 49 1018.2
20260503235542 65 0 0.0 3.0 0.00 0.00 0.00 47 1018.2
20260503235042 65 203 0.0 2.0 0.00 0.00 0.00 46 1018.2
20260503234552 66 230 0.0 2.0 0.00 0.00 0.00 47 1018.3
20260503234042 66 179 0.0 4.0 0.00 0.00 0.00 45 1018.2
20260503233543 67 0 0.0 4.0 0.00 0.00 0.00 45 1018.2
20260503233051 67 200 0.0 2.0 0.00 0.00 0.00 46 1018.2
20260503232543 67 0 0.0 2.0 0.00 0.00 0.00 44 1018.2
20260503232042 68 173 1.0 4.0 0.00 0.00 0.00 41 1018.2
20260503231549 68 229 0.0 4.0 0.00 0.00 0.00 41 1018.3
20260503231043 69 247 0.0 3.0 0.00 0.00 0.00 41 1018.3
20260503230542 69 273 1.0 3.0 0.00 0.00 0.00 42 1018.4
20260503230100 69 265 0.0 6.0 0.00 0.00 0.00 40 1018.3
20260503225542 70 180 1.0 6.0 0.00 0.00 0.00 41 1018.2
20260503225042 69 141 2.0 8.0 0.00 0.00 0.00 39 1018.2
20260503224553 69 168 3.0 8.0 0.00 0.00 0.00 40 1018.2
20260503224042 69 191 2.0 6.0 0.00 0.00 0.00 41 1018.2
20260503223539 69 209 2.0 6.0 0.00 0.00 0.00 40 1018.2
20260503223057 69 212 3.0 7.0 0.00 0.00 0.00 40 1018.2
20260503222542 69 184 2.0 7.0 0.00 0.00 0.00 39 1018.3
20260503222043 70 217 1.0 5.0 0.00 0.00 0.00 40 1018.3
20260503221551 70 0 1.0 4.0 0.00 0.00 0.00 41 1018.3
20260503221043 70 237 2.0 4.0 0.00 0.00 0.00 40 1018.4
20260503220542 70 44 1.0 3.0 0.00 0.00 0.00 40 1018.3
20260503220055 70 209 0.0 3.0 0.00 0.00 0.00 40 1018.4
20260503215542 70 221 1.0 7.0 0.00 0.00 0.00 41 1018.4
20260503215042 70 212 3.0 7.0 0.00 0.00 0.00 39 1018.4
20260503214553 70 44 3.0 6.0 0.00 0.00 0.00 39 1018.5
20260503214045 70 229 2.0 6.0 0.00 0.00 0.00 39 1018.5
20260503213542 70 196 1.0 6.0 0.00 0.00 0.00 39 1018.5
20260503213106 70 293 1.0 6.0 0.00 0.00 0.00 38 1018.6
20260503212540 70 161 2.0 6.0 0.00 0.00 0.00 40 1018.6
20260503212043 71 302 1.0 5.0 0.00 0.00 0.00 41 1018.6
20260503211548 71 12 2.0 5.0 0.00 0.00 0.00 39 1018.7
20260503211042 71 274 1.0 8.0 0.00 0.00 0.00 39 1018.6
20260503210543 71 6 1.0 8.0 0.00 0.00 0.00 36 1018.7
20260503210100 72 188 2.0 8.0 0.00 0.00 0.00 37 1018.7
20260503205543 72 0 0.0 5.0 0.00 0.00 0.00 38 1018.6
20260503205042 71 20 1.0 6.0 0.00 0.00 0.00 40 1018.6
20260503204554 71 249 3.0 6.0 0.00 0.00 0.00 40 1018.7
20260503204041 71 319 3.0 6.0 0.00 0.00 0.00 37 1018.8
20260503203543 72 12 2.0 8.0 0.00 0.00 0.00 37 1018.8
20260503203050 71 278 1.0 8.0 0.00 0.00 0.00 39 1018.9
20260503202541 72 11 2.0 8.0 0.00 0.00 0.00 36 1019.1
20260503202041 71 229 2.0 7.0 0.00 0.00 0.00 38 1019.1
20260503201551 72 242 2.0 7.0 0.00 0.00 0.00 35 1019.2
20260503201041 72 200 1.0 6.0 0.00 0.00 0.00 38 1019.2
20260503200542 71 57 2.0 6.0 0.00 0.00 0.00 37 1019.3
20260503200057 71 234 1.0 7.0 0.00 0.00 0.00 37 1019.4
20260503195542 71 180 3.0 7.0 0.00 0.00 0.00 35 1019.6
20260503195041 72 355 1.0 5.0 0.00 0.00 0.00 37 1019.5
20260503194551 71 162 1.0 6.0 0.00 0.00 0.00 37 1019.6
20260503194041 70 159 3.0 7.0 0.00 0.00 0.00 36 1019.7
20260503193542 70 265 3.0 7.0 0.00 0.00 0.00 38 1019.7
20260503193100 70 197 3.0 7.0 0.00 0.00 0.00 37 1019.8
20260503192541 70 250 2.0 7.0 0.00 0.00 0.00 37 1019.8
20260503192042 70 271 3.0 7.0 0.00 0.00 0.00 41 1020.0
20260503191610 70 63 2.0 7.0 0.00 0.00 0.00 39 1020.1
20260503191041 69 148 3.0 12.0 0.00 0.00 0.00 38 1020.1
20260503190542 69 174 5.0 12.0 0.00 0.00 0.00 38 1020.3
20260503190053 70 139 4.0 11.0 0.00 0.00 0.00 36 1020.3
20260503185544 70 169 2.0 8.0 0.00 0.00 0.00 38 1020.3
20260503185041 70 236 2.0 8.0 0.00 0.00 0.00 40 1020.5
20260503184557 70 240 2.0 7.0 0.00 0.00 0.00 42 1020.5
20260503184045 70 219 3.0 7.0 0.00 0.00 0.00 41 1020.6
20260503183542 70 206 1.0 4.0 0.00 0.00 0.00 40 1020.7
20260503183109 69 72 1.0 9.0 0.00 0.00 0.00 44 1020.7
20260503182541 68 41 2.0 9.0 0.00 0.00 0.00 39 1020.9
20260503182041 69 165 4.0 8.0 0.00 0.00 0.00 39 1021.0
20260503181551 69 282 3.0 10.0 0.00 0.00 0.00 42 1020.8
20260503181041 69 221 4.0 10.0 0.00 0.00 0.00 43 1021.0
20260503180544 68 352 1.0 9.0 0.00 0.00 0.00 42 1021.0